Flag for Ireland Weather past 2 weeks in Dublin, Ireland

Now
66 °F

Partly sunny.


Feels Like: 66 °F
Forecast: 55 / 68 °F
Wind: 8 mph from East

Location: Dublin Airport

Current Time: Jul 28, 2014 at 3:52:10 PM

Latest Report: Jul 28, 2014 at 3:00 PM


Visibility: N/A

Pressure: 30.09 "Hg

Humidity: 73%

Dew point: 57 °F

Location of DublinLocation

Historic Weather in Dublin — Graph

°F

Dublin temperature yesterday

Maximum temperature yesterday: 70 °F (at 2:00 PM)
Minimum temperature yesterday: 54 °F (at 12:00 AM)
Average temperature yesterday: 59 °F

Past Weeks' High & Low Weather Summary

 TemperatureHumidityPressure
High75 °F (Jul 23, 2:30 PM)100% (Jul 17, 4:00 AM)30.24 "Hg (Jul 17, 4:00 AM)
Low50 °F (Jul 17, 6:30 AM)46% (Jul 27, 2:00 PM)29.71 "Hg (Jul 14, 1:30 PM)
Average63 °F80%30.01 "Hg
* Reported Jul 13 2:00 PM — Jul 28 2:30 PM, Dublin, Weather by CustomWeather, © 2014

Note: Actual official high and low records may vary slightly from our data, if they occured in-between our weather recording intervals... More about our weather records

Advertising

Dublin weather history for previous 24 hours

 ConditionsComfort  
Time TempWeatherWind HumidityBarometerVisibility
2:30 PM
Jul 28
66 °FScattered clouds.6 mph68%30.09 "HgN/A
2:00 PM68 °FPartly sunny.6 mph64%30.09 "HgN/A
1:30 PM64 °FPartly sunny.9 mph73%30.09 "HgN/A
1:00 PM64 °FPartly sunny.10 mph68%30.09 "HgN/A
12:30 PM66 °FPartly sunny.9 mph68%30.09 "HgN/A
12:00 PM66 °FPartly sunny.12 mph68%30.09 "HgN/A
11:30 AM64 °FPartly sunny.13 mph73%30.09 "HgN/A
11:00 AM64 °FScattered clouds.16 mph73%30.09 "HgN/A
10:30 AM63 °FBroken clouds.14 mph83%30.09 "HgN/A
10:00 AM61 °FBroken clouds.13 mph83%30.09 "HgN/A
9:30 AM61 °FBroken clouds.13 mph88%30.07 "HgN/A
9:00 AM61 °FBroken clouds.12 mph88%30.07 "HgN/A
8:30 AM59 °FBroken clouds.12 mph94%30.07 "HgN/A
8:00 AM59 °FBroken clouds.10 mph88%30.07 "HgN/A
7:30 AM59 °FBroken clouds.14 mph94%30.07 "HgN/A
7:00 AM57 °FDrizzle. Broken clouds.12 mph100%30.07 "HgN/A
6:30 AM57 °FPartly cloudy.12 mph94%30.07 "HgN/A
6:00 AM57 °FPartly cloudy.12 mph94%30.04 "HgN/A
5:30 AM57 °FPassing clouds.13 mph94%30.04 "HgN/A
5:00 AM57 °FPartly cloudy.13 mph94%30.04 "HgN/A
4:30 AM57 °FPartly cloudy.14 mph94%30.04 "HgN/A
3:30 AM57 °FPartly cloudy.13 mph94%30.04 "HgN/A
3:00 AM57 °FPartly cloudy.14 mph94%30.04 "HgN/A
2:30 AM57 °FPartly cloudy.14 mph94%30.04 "HgN/A
2:00 AM57 °FPartly cloudy.15 mph94%30.04 "HgN/A
1:30 AM57 °FPartly cloudy.16 mph94%30.04 "HgN/A
1:00 AM57 °FPartly cloudy.16 mph94%30.04 "HgN/A
12:30 AM57 °FPartly cloudy.15 mph94%30.04 "HgN/A
12:00 AM57 °FPartly cloudy.16 mph94%30.04 "HgN/A
11:30 PM
Jul 27
57 °FScattered showers. Partly cloudy.16 mph88%30.04 "HgN/A
11:00 PM57 °FPartly cloudy.16 mph88%30.04 "HgN/A
10:30 PM57 °FPassing clouds.15 mph88%30.07 "HgN/A
10:00 PM57 °FBroken clouds.17 mph88%30.04 "HgN/A
9:30 PM57 °FSprinkles. Broken clouds.18 mph88%30.04 "HgN/A
9:00 PM59 °FSprinkles. Broken clouds.16 mph77%30.04 "HgN/A
8:30 PM61 °FBroken clouds.20 mph72%30.04 "HgN/A
8:00 PM61 °FPartly sunny.17 mph72%30.04 "HgN/A
7:30 PM61 °FPartly sunny.15 mph72%30.04 "HgN/A
7:00 PM61 °FPartly sunny.15 mph72%30.04 "HgN/A
6:30 PM61 °FPartly sunny.14 mph72%30.04 "HgN/A
6:00 PM63 °FBroken clouds.14 mph73%30.04 "HgN/A
5:30 PM61 °FScattered showers. Broken clouds.14 mph77%30.04 "HgN/A
5:00 PM63 °FScattered showers. Broken clouds.8 mph77%30.04 "HgN/A
4:30 PM63 °FScattered showers. Broken clouds.10 mph77%30.04 "HgN/A
4:00 PM63 °FSprinkles. Broken clouds.22 mph77%30.07 "HgN/A
3:30 PM70 °FScattered showers. Broken clouds.18 mph50%30.04 "HgN/A
3:00 PM68 °FBroken clouds.15 mph49%30.04 "HgN/A
Weather by CustomWeather, © 2014

See weather overviewHow to use our weather pages